Skip Navigation Linkswww.weather.gov 
NOAA logo - Click to go to the NOAA homepage National Weather Service   NWS logo - Click to go to the NWS homepage    
Western Region Headquarters
navigation bar decoration      
Regional Divisions
 
 
 
 
 
USA.gov is the U.S. government's official web portal to all federal, state and local government web resources and services.
spacer
Printer Friendly  |   Go Back  |  Version: Current   1   2   3   4   5   6   7   8   9   10   |  Font:  A A A  |  
This version is NOT current and may no longer be valid!

HOURLY WEATHER ROUNDUP
 
 ASUS45 KREV 022110
RWRNV
NEVADA REGIONAL WEATHER ROUNDUP
NATIONAL WEATHER SERVICE RENO NV
100 PM PST MON MAR 02 2015

NOTE: "FAIR" INDICATES FEW OR NO CLOUDS BELOW 12,000 FEET WITH NO
SIGNIFICANT WEATHER AND/OR OBSTRUCTIONS TO VISIBILITY.

NVZ001-003-004-022200-
WESTERN NEVADA

CITY SKY/WX TMP DP RH WIND PRES REMARKS
RENO PTSUNNY 45 26 47 NW18 29.76F
CARSON CITY CLOUDY 43 27 52 NW8 29.76F
MINDEN PTSUNNY 43 25 49 W5 29.77
SLIDE MTN N/A 25 23 93 CALM N/A
PYRAMID LAKE N/A 43 N/A N/A NE6 N/A
FALLON PTSUNNY 48 28 46 NE7 29.74F
LOVELOCK SUNNY 47 30 51 S7 29.74F
HAWTHORNE SUNNY 46 30 53 CALM 29.76F
$$

NVZ002-CAZ072-073-022200-
NORTHERN AND CENTRAL SIERRA

CITY SKY/WX TMP DP RH WIND PRES REMARKS
S. LAKE TAHOE FLURRIES 37 24 59 S6 29.76S
TRUCKEE PTSUNNY 34 28 80 SE5 29.77F
SQUAW VLY 8000 N/A 27 23 86 W5 N/A
SUSANVILLE CLOUDY 45 30 57 SW9 29.78
BLUE CANYON CLOUDY 36 31 82 CALM 29.81S
MAMMOTH LAKES CLOUDY 36 27 69 E9 29.74F
BRIDGEPORT PTSUNNY 40 18 41 VRB3 29.70F
$$

NVZ030-031-036-022200-
NORTHERN NEVADA

CITY SKY/WX TMP DP RH WIND PRES REMARKS
ELKO CLOUDY 42 24 49 NW15 29.67F
WINNEMUCCA NOT AVBL
WENDOVER CLOUDY 36 30 80 SW3 29.70F
$$

NVZ035-037-022200-
CENTRAL NEVADA

CITY SKY/WX TMP DP RH WIND PRES REMARKS
ELY CLOUDY 34 29 82 N9 29.65F
EUREKA N/A 35 28 75 NE3 29.69F
$$

NVZ013-014-022200-
SOUTH CENTRAL NEVADA

CITY SKY/WX TMP DP RH WIND PRES REMARKS
TONOPAH MOSUNNY 38 28 67 NW20 29.74S
$$

NVZ017-020-022-022200-
SOUTHERN NEVADA

CITY SKY/WX TMP DP RH WIND PRES REMARKS
LAS VEGAS PTSUNNY 57 36 45 SW21G29 29.73F
N. LAS VEGAS PTSUNNY 55 34 45 SW15 29.75F
NELLIS AFB MOSUNNY 56 39 52 S20G30 29.75F
HENDERSON PTSUNNY 56 38 50 SW16 29.78F
MERCURY CLOUDY 49 38 65 S14G23 29.77S
$$


Webmaster
US Dept of Commerce
National Oceanic and Atmospheric Administration
National Weather Service
Western Region Headquarters
125 South State Street
Salt Lake City, UT 84138-1102

Disclaimer
Information Quality
Credits
Glossary
Organization
Privacy Policy
Freedom of Information Act
About Us
Career Opportunities